Regional Weather Roundup
Issued by NWS

Home | Current Version | Previous Version | Text Only | Print | Product List | Glossary Off
Versions: 1 2 3 4 5 6 7 8 9 10 11 12 13 14 15 16 17 18 19 20 21 22 23 24 25 26 27 28 29 30 31 32 33 34 35 36 37 38 39 40 41 42 43 44 45 46 47 48 49 50

000
ASUS45 KBOI 192210
RWRID
WEATHER ROUNDUP FOR IDAHO
NATIONAL WEATHER SERVICE BOISE ID
400 PM MDT FRI SEP 19 2014

NOTE: "FAIR" INDICATES FEW OR NO CLOUDS BELOW 12000 FEET
WITH NO SIGNIFICANT WEATHER AND/OR OBSTRUCTIONS TO VISIBILITY

IDZ012-014-192300-
SOUTHWEST IDAHO


CITY           SKY/WX    TMP DP  RH WIND       PRES   REMARKS
BOISE          SUNNY     78  45  30 W7        30.03F
CALDWELL       SUNNY     79  46  31 N6        30.05F
MOUNTAIN HOME  SUNNY     80  45  28 NW15G22   30.02F
$$

IDZ016-017-192300-
SOUTHCENTRAL IDAHO


CITY           SKY/WX    TMP DP  RH WIND       PRES   REMARKS
BURLEY         SUNNY     75  46  35 W12       30.06F
JEROME         SUNNY     77  44  30 SW14      30.07F
TWIN FALLS     SUNNY     78  44  29 NW13      30.08F
$$

IDZ019>023-192300-
SOUTHEAST IDAHO


CITY           SKY/WX    TMP DP  RH WIND       PRES   REMARKS
IDAHO FALLS    SUNNY     80  39  23 SW16G23   30.05F
POCATELLO      SUNNY     79  41  25 SW15G23   30.07F
REXBURG        SUNNY     76  43  30 SW12G20   30.06F
$$

IDZ006-010-011-018-031-032-192300-
CENTRAL IDAHO MOUNTAINS


CITY           SKY/WX    TMP DP  RH WIND       PRES   REMARKS
MCCALL         SUNNY     73  40  30 W9        30.11S
HAILEY         MOSUNNY   79  43  27 S10G18    30.08F
STANLEY          N/A     73  34  23 NW10      30.16F
SALMON         SUNNY     75  45  33 N7        29.99F
CHALLIS        SUNNY     79  36  21 NE5       30.03F
$$

IDZ002-004-006-007-026-192300-
NORTHERN IDAHO


CITY           SKY/WX    TMP DP  RH WIND       PRES   REMARKS
LEWISTON       MOSUNNY   79  47  32 W5        30.02F
LOWELL           N/A     84  49  29 VRB3      30.00S
COEUR D`ALENE  CLOUDY    73  48  40 SW10      30.05S
MULLAN PASS    CLOUDY    54  44  69 VRB3      30.19R
$$


USA.gov is the U.S. government's official web portal to all federal, state and local government web resources and services.